Home > Weather > Moroni > Past weeks

Flag for Comoros Weather for the Past 2 Weeks in Moroni, Comoros

Now
81 °F

Passing clouds.


Feels Like: 85 °F
Forecast: 77 / 85 °F
Wind: 10 mph from Northwest

Location: Dzaoudzi / Pamanzi Mayotte

Current Time: Feb 10, 2016 at 5:47:56 AM

Latest Report: Feb 10, 2016 at 5:00 AM


Visibility: N/A

Pressure: 29.80 "Hg

Humidity: 79%

Dew point: 73 °F

Location of MoroniLocation

Historic Weather in Moroni — Graph

°F

Moroni Temperature Yesterday

Maximum temperature yesterday: 90 °F (at 1:30 PM)
Minimum temperature yesterday: 79 °F (at 5:00 AM)
Average temperature yesterday: 84 °F

High & Low Weather Summary for the Past Weeks

 TemperatureHumidityPressure
High90 °F (Jan 26, 9:30 AM)94% (Jan 26, 4:00 PM)29.89 "Hg (Jan 26, 4:00 PM)
Low75 °F (Feb 3, 7:00 PM)59% (Feb 9, 10:30 AM)29.71 "Hg (Feb 1, 3:30 AM)
Average81 °F80%29.82 "Hg
* Reported Jan 26 4:00 AM — Feb 10 4:30 AM, Moroni, Weather by CustomWeather, © 2016

Note: Actual official high and low records may vary slightly from our data, if they occured in-between our weather recording intervals... More about our weather records

Advertising

Moroni Weather History for the Previous 24 Hours

 ConditionsComfort  
Time TempWeatherWind HumidityBarometerVisibility
4:30 AM
Wed, Feb 10
82 °FWarm.12 mph74%29.80 "HgN/A
3:30 AM81 °FWarm.12 mph79%29.80 "HgN/A
3:00 AM81 °FWarm.10 mph79%29.80 "HgN/A
2:30 AM82 °FWarm.9 mph74%29.77 "HgN/A
2:00 AM82 °FWarm.8 mph74%29.80 "HgN/A
1:30 AM82 °FWarm.8 mph74%29.80 "HgN/A
12:30 AM81 °FWarm.9 mph79%29.80 "HgN/A
12:00 AM82 °FWarm.9 mph74%29.83 "HgN/A
11:30 PM
Tue, Feb 9
82 °FWarm.8 mph74%29.83 "HgN/A
11:00 PM82 °FWarm.8 mph74%29.83 "HgN/A
10:30 PM82 °FWarm.9 mph74%29.83 "HgN/A
10:00 PM82 °FWarm.9 mph74%29.83 "HgN/A
9:30 PM82 °FWarm.9 mph74%29.83 "HgN/A
9:00 PM82 °FWarm.9 mph74%29.83 "HgN/A
8:30 PM82 °FWarm.9 mph74%29.83 "HgN/A
8:00 PM82 °FWarm.8 mph74%29.80 "HgN/A
7:00 PM82 °FWarm.9 mph74%29.80 "HgN/A
6:30 PM82 °FPassing clouds.10 mph74%29.80 "HgN/A
6:00 PM82 °FBroken clouds.10 mph79%29.77 "HgN/A
5:30 PM84 °FScattered showers. Broken clouds.10 mph70%29.77 "HgN/A
5:00 PM86 °FScattered clouds.16 mph70%29.77 "HgN/A
4:30 PM86 °FScattered showers. Scattered clouds.18 mph62%29.74 "HgN/A
4:00 PM88 °FScattered clouds.18 mph59%29.74 "HgN/A
3:30 PM88 °FScattered clouds.18 mph59%29.74 "HgN/A
3:00 PM88 °FScattered clouds.20 mph62%29.74 "HgN/A
2:30 PM88 °FBroken clouds.20 mph59%29.74 "HgN/A
1:30 PM90 °FBroken clouds.18 mph59%29.77 "HgN/A
1:04 PM88 °FBroken clouds.18 mph62%29.77 "HgN/A
12:30 PM88 °FBroken clouds.18 mph62%29.77 "HgN/A
12:00 PM88 °FBroken clouds.18 mph66%29.80 "HgN/A
11:04 AM88 °FBroken clouds.18 mph62%29.83 "HgN/A
10:30 AM88 °FPartly sunny.17 mph59%29.83 "HgN/A
10:00 AM88 °FBroken clouds.12 mph62%29.83 "HgN/A
9:30 AM86 °FBroken clouds.15 mph62%29.83 "HgN/A
9:00 AM86 °FBroken clouds.13 mph62%29.83 "HgN/A
8:30 AM86 °FBroken clouds.13 mph62%29.83 "HgN/A
7:30 AM82 °FScattered clouds.8 mph70%29.83 "HgN/A
6:30 AM81 °FBroken clouds.7 mph79%29.80 "HgN/A
6:00 AM79 °FScattered clouds.8 mph84%29.80 "HgN/A
5:30 AM79 °FPassing clouds.3 mph79%29.77 "HgN/A
5:00 AM79 °FPassing clouds.8 mph79%29.77 "HgN/A
Weather by CustomWeather, © 2016

See weather overviewHow to use our weather pages